HAZ606 RCTP-ZSHC

Flight info

Callsign HAZ606
Flight time 1h 24m
Altitude 33000
Route PIANO1A PIANO L3 CUBIT/N0466F350 L3 VIOLA R596 SULEM/K0872S1040 R596 BZ/K0865S1070 A470 UGAGO UGAGO91
Aircraft A320/M-SDE3FGHIRWY/LB1

Departure

Time 2026-05-07 23:16
Airport Taiwan Taoyuan International Airport (RCTP)

Arrival

Time 2026-05-08 00:40
Airport Hangzhou Xiaoshan International Airport (ZSHC)
Time Latitude Longitude Altitude Speed Heading
2026-05-07 22:53 25.07603 121.23430 71 ft 0 kts 320°
2026-05-07 23:01 25.07602 121.23431 83 ft 1 kts 320°
2026-05-07 23:01 25.07590 121.23442 85 ft 3 kts 320°
2026-05-07 23:01 25.07575 121.23456 82 ft 3 kts 319°
2026-05-07 23:02 25.07559 121.23471 83 ft 3 kts 317°
2026-05-07 23:02 25.07544 121.23487 85 ft 3 kts 315°
2026-05-07 23:02 25.07531 121.23503 85 ft 3 kts 308°
2026-05-07 23:02 25.07519 121.23521 85 ft 3 kts 286°
2026-05-07 23:03 25.07517 121.23536 83 ft 1 kts 235°
2026-05-07 23:03 25.07518 121.23539 83 ft 0 kts 230°
2026-05-07 23:05 25.07515 121.23534 85 ft 6 kts 229°
2026-05-07 23:05 25.07472 121.23477 83 ft 9 kts 231°
2026-05-07 23:05 25.07432 121.23426 83 ft 8 kts 228°
2026-05-07 23:06 25.07396 121.23383 82 ft 7 kts 228°
2026-05-07 23:06 25.07368 121.23346 86 ft 6 kts 231°
2026-05-07 23:06 25.07343 121.23313 82 ft 7 kts 229°
2026-05-07 23:06 25.07314 121.23276 82 ft 6 kts 229°
2026-05-07 23:07 25.07290 121.23247 81 ft 5 kts 229°
2026-05-07 23:07 25.07266 121.23216 86 ft 6 kts 229°
2026-05-07 23:07 25.07235 121.23187 83 ft 6 kts 205°
2026-05-07 23:07 25.07188 121.23196 84 ft 11 kts 143°
2026-05-07 23:08 25.07134 121.23249 85 ft 9 kts 140°
2026-05-07 23:08 25.07088 121.23280 87 ft 6 kts 167°
2026-05-07 23:08 25.07048 121.23262 87 ft 6 kts 223°
2026-05-07 23:08 25.07025 121.23231 88 ft 5 kts 229°
2026-05-07 23:09 25.06996 121.23195 87 ft 7 kts 228°
2026-05-07 23:09 25.06966 121.23157 88 ft 6 kts 230°
2026-05-07 23:09 25.06941 121.23125 85 ft 5 kts 229°
2026-05-07 23:09 25.06916 121.23094 85 ft 7 kts 228°
2026-05-07 23:10 25.06887 121.23058 85 ft 6 kts 227°
2026-05-07 23:10 25.06844 121.23002 88 ft 14 kts 229°
2026-05-07 23:10 25.06784 121.22925 87 ft 13 kts 228°
2026-05-07 23:10 25.06730 121.22857 88 ft 11 kts 230°
2026-05-07 23:11 25.06683 121.22797 88 ft 10 kts 229°
2026-05-07 23:11 25.06641 121.22744 84 ft 9 kts 229°
2026-05-07 23:11 25.06596 121.22687 84 ft 14 kts 229°
2026-05-07 23:11 25.06534 121.22608 85 ft 13 kts 229°
2026-05-07 23:12 25.06497 121.22561 88 ft 12 kts 230°
2026-05-07 23:12 25.06441 121.22490 88 ft 12 kts 229°
2026-05-07 23:12 25.06389 121.22423 89 ft 11 kts 229°
2026-05-07 23:12 25.06342 121.22363 88 ft 10 kts 229°
2026-05-07 23:13 25.06278 121.22330 87 ft 9 kts 166°
2026-05-07 23:13 25.06245 121.22353 89 ft 2 kts 139°
2026-05-07 23:13 25.06228 121.22370 93 ft 10 kts 139°
2026-05-07 23:13 25.06185 121.22485 99 ft 16 kts 59°
2026-05-07 23:14 25.06216 121.22524 99 ft 0 kts 49°
2026-05-07 23:15 25.06269 121.22590 99 ft 42 kts 49°
2026-05-07 23:15 25.06616 121.23027 95 ft 108 kts 49°
2026-05-07 23:15 25.07241 121.23808 93 ft 158 kts 49°
2026-05-07 23:15 25.08013 121.24807 324 ft 180 kts 48°
2026-05-07 23:16 25.08813 121.25885 905 ft 183 kts 49°
2026-05-07 23:16 25.09659 121.26938 1448 ft 183 kts 44°
2026-05-07 23:16 25.10534 121.27968 2105 ft 185 kts 44°
2026-05-07 23:16 25.11453 121.28984 2817 ft 191 kts 41°
2026-05-07 23:17 25.12554 121.29868 3468 ft 204 kts 25°
2026-05-07 23:17 25.13988 121.30323 3965 ft 230 kts
2026-05-07 23:17 25.15740 121.30315 4145 ft 279 kts 353°
2026-05-07 23:17 25.17871 121.30098 4232 ft 332 kts 351°
2026-05-07 23:18 25.20194 121.29652 4945 ft 337 kts 347°
2026-05-07 23:18 25.22434 121.29200 6445 ft 318 kts 348°
2026-05-07 23:18 25.24557 121.28870 7862 ft 299 kts 351°
2026-05-07 23:18 25.26594 121.28653 9056 ft 290 kts 353°
2026-05-07 23:19 25.28579 121.28537 10123 ft 282 kts 355°
2026-05-07 23:19 25.30526 121.28531 11034 ft 277 kts 357°
2026-05-07 23:19 25.31178 121.28546 11291 ft 279 kts 357°
2026-05-07 23:19 25.34612 121.28493 11694 ft 317 kts 359°
2026-05-07 23:20 25.36874 121.28823 11868 ft 344 kts 11°
2026-05-07 23:20 25.39205 121.29804 12055 ft 369 kts 27°
2026-05-07 23:20 25.41325 121.31479 12535 ft 380 kts 41°
2026-05-07 23:20 25.43103 121.33623 13135 ft 387 kts 48°
2026-05-07 23:21 25.44870 121.35890 13757 ft 391 kts 47°
2026-05-07 23:21 25.46661 121.38176 14315 ft 395 kts 47°
2026-05-07 23:21 25.48474 121.40481 14891 ft 399 kts 47°
2026-05-07 23:21 25.50307 121.42808 15452 ft 402 kts 47°
2026-05-07 23:22 25.52150 121.45153 16014 ft 405 kts 47°
2026-05-07 23:22 25.54003 121.47520 16560 ft 409 kts 47°
2026-05-07 23:22 25.55867 121.49912 17093 ft 412 kts 47°
2026-05-07 23:22 25.57745 121.52326 17625 ft 415 kts 47°
2026-05-07 23:23 25.59645 121.54758 18146 ft 419 kts 47°
2026-05-07 23:23 25.61558 121.57203 18605 ft 422 kts 47°
2026-05-07 23:23 25.63485 121.59669 19048 ft 424 kts 47°
2026-05-07 23:23 25.65418 121.62149 19496 ft 427 kts 47°
2026-05-07 23:24 25.67359 121.64649 19950 ft 429 kts 47°
2026-05-07 23:24 25.69309 121.67165 20397 ft 431 kts 47°
2026-05-07 23:24 25.71270 121.69695 20864 ft 433 kts 46°
2026-05-07 23:24 25.73247 121.72232 21291 ft 436 kts 46°
2026-05-07 23:25 25.75211 121.74748 21734 ft 439 kts 46°
2026-05-07 23:25 25.77210 121.77314 22160 ft 441 kts 46°
2026-05-07 23:25 25.79220 121.79898 22573 ft 443 kts 46°
2026-05-07 23:25 25.81407 121.82305 22969 ft 442 kts 36°
2026-05-07 23:26 25.83861 121.84363 23371 ft 443 kts 32°
2026-05-07 23:26 25.86356 121.86379 23742 ft 445 kts 32°
2026-05-07 23:26 25.88870 121.88404 24065 ft 447 kts 32°
2026-05-07 23:26 25.91394 121.90437 24381 ft 450 kts 32°
2026-05-07 23:27 25.96486 121.94547 24999 ft 455 kts 33°
2026-05-07 23:27 25.99048 121.96619 25299 ft 457 kts 33°
2026-05-07 23:27 26.01626 121.98712 25595 ft 460 kts 33°
2026-05-07 23:28 26.04214 122.00810 25893 ft 462 kts 32°
2026-05-07 23:28 26.06834 122.02893 26195 ft 464 kts 32°
2026-05-07 23:28 26.09485 122.04961 26494 ft 466 kts 31°
2026-05-07 23:28 26.12154 122.07025 26795 ft 469 kts 31°
2026-05-07 23:29 26.14840 122.09101 27078 ft 471 kts 31°
2026-05-07 23:29 26.17536 122.11192 27379 ft 474 kts 31°
2026-05-07 23:29 26.20244 122.13302 27661 ft 476 kts 32°
2026-05-07 23:29 26.22961 122.15427 27937 ft 479 kts 32°
2026-05-07 23:30 26.25687 122.17569 28213 ft 481 kts 32°
2026-05-07 23:30 26.28423 122.19726 28485 ft 483 kts 32°
2026-05-07 23:30 26.31174 122.21894 28821 ft 485 kts 32°
2026-05-07 23:30 26.33942 122.24072 29159 ft 488 kts 32°
2026-05-07 23:31 26.36686 122.26231 29451 ft 490 kts 32°
2026-05-07 23:31 26.39517 122.28454 29724 ft 493 kts 32°
2026-05-07 23:31 26.42288 122.30631 29989 ft 494 kts 32°
2026-05-07 23:31 26.45095 122.32840 30310 ft 494 kts 32°
2026-05-07 23:32 26.47898 122.35052 30639 ft 493 kts 32°
2026-05-07 23:32 26.50689 122.37264 30957 ft 492 kts 31°
2026-05-07 23:32 26.53482 122.39477 31298 ft 491 kts 31°
2026-05-07 23:32 26.56272 122.41678 31647 ft 491 kts 31°
2026-05-07 23:33 26.59052 122.43869 31990 ft 490 kts 31°
2026-05-07 23:33 26.61831 122.46062 32316 ft 489 kts 31°
2026-05-07 23:33 26.64608 122.48262 32661 ft 488 kts 31°
2026-05-07 23:33 26.67378 122.50460 32963 ft 488 kts 31°
2026-05-07 23:34 26.72907 122.54846 33053 ft 487 kts 31°
2026-05-07 23:34 26.78432 122.59224 33054 ft 486 kts 31°
2026-05-07 23:35 26.83948 122.63596 33055 ft 484 kts 31°
2026-05-07 23:35 26.89437 122.67956 33059 ft 483 kts 31°
2026-05-07 23:36 26.94875 122.72297 33060 ft 483 kts 31°
2026-05-07 23:36 27.00348 122.76669 33070 ft 483 kts 31°
2026-05-07 23:37 27.05826 122.81039 33078 ft 483 kts 31°
2026-05-07 23:37 27.11302 122.85414 33076 ft 483 kts 31°
2026-05-07 23:38 27.16888 122.89572 33078 ft 477 kts 21°
2026-05-07 23:38 27.19953 122.90906 33075 ft 470 kts 10°
2026-05-07 23:38 27.23134 122.91576 33074 ft 462 kts 359°
2026-05-07 23:39 27.29417 122.91019 33076 ft 448 kts 340°
2026-05-07 23:39 27.35257 122.88712 33075 ft 444 kts 334°
2026-05-07 23:40 27.37982 122.87161 33077 ft 436 kts 321°
2026-05-07 23:40 27.40270 122.84980 33079 ft 429 kts 309°
2026-05-07 23:40 27.42041 122.82315 33070 ft 424 kts 297°
2026-05-07 23:40 27.43233 122.79303 33073 ft 420 kts 285°
2026-05-07 23:41 27.43796 122.76133 33072 ft 419 kts 274°
2026-05-07 23:41 27.43848 122.72859 33069 ft 419 kts 270°
2026-05-07 23:41 27.43852 122.66297 33065 ft 420 kts 270°
2026-05-07 23:42 27.43870 122.59721 33070 ft 421 kts 270°
2026-05-07 23:42 27.43881 122.53130 33072 ft 421 kts 270°
2026-05-07 23:43 27.43889 122.46529 33073 ft 422 kts 270°
2026-05-07 23:43 27.44275 122.39951 33078 ft 422 kts 281°
2026-05-07 23:44 27.45421 122.33475 33082 ft 422 kts 281°
2026-05-07 23:44 27.46567 122.26993 33091 ft 422 kts 281°
2026-05-07 23:45 27.47704 122.20515 33099 ft 421 kts 281°
2026-05-07 23:45 27.48829 122.14038 33109 ft 421 kts 281°
2026-05-07 23:46 27.49939 122.07613 33110 ft 420 kts 281°
2026-05-07 23:46 27.51060 122.01157 33115 ft 420 kts 281°
2026-05-07 23:47 27.52177 121.94712 33113 ft 419 kts 281°
2026-05-07 23:47 27.53288 121.88274 33120 ft 418 kts 281°
2026-05-07 23:48 27.54392 121.81850 33116 ft 417 kts 281°
2026-05-07 23:48 27.55486 121.75433 33117 ft 416 kts 281°
2026-05-07 23:49 27.56578 121.69029 33119 ft 416 kts 281°
2026-05-07 23:49 27.57669 121.62638 33125 ft 415 kts 281°
2026-05-07 23:50 27.58758 121.56258 33128 ft 414 kts 281°
2026-05-07 23:50 27.59877 121.49902 33122 ft 413 kts 281°
2026-05-07 23:51 27.61001 121.43579 33127 ft 413 kts 281°
2026-05-07 23:51 27.62129 121.37243 33130 ft 412 kts 281°
2026-05-07 23:52 27.63243 121.30919 33212 ft 410 kts 281°
2026-05-07 23:52 27.64352 121.24614 33210 ft 409 kts 281°
2026-05-07 23:53 27.65455 121.18328 33212 ft 408 kts 281°
2026-05-07 23:53 27.66547 121.12045 33211 ft 408 kts 281°
2026-05-07 23:54 27.67633 121.05779 33212 ft 407 kts 281°
2026-05-07 23:54 27.68718 120.99513 33213 ft 406 kts 281°
2026-05-07 23:55 27.69806 120.93260 33216 ft 406 kts 281°
2026-05-07 23:55 27.70894 120.87015 33217 ft 405 kts 281°
2026-05-07 23:56 27.71976 120.80778 33221 ft 405 kts 281°
2026-05-07 23:56 27.73035 120.74584 33221 ft 404 kts 281°
2026-05-07 23:57 27.74088 120.68355 33219 ft 404 kts 281°
2026-05-07 23:57 27.75285 120.62171 33218 ft 403 kts 288°
2026-05-07 23:58 27.77260 120.56242 33214 ft 403 kts 290°
2026-05-07 23:58 27.79233 120.50323 33217 ft 403 kts 289°
2026-05-07 23:59 27.81201 120.44404 33222 ft 403 kts 289°
2026-05-07 23:59 27.83168 120.38485 33215 ft 401 kts 289°
2026-05-08 00:00 27.85129 120.32582 33220 ft 401 kts 289°
2026-05-08 00:00 27.87086 120.26683 33222 ft 401 kts 289°
2026-05-08 00:01 27.89037 120.20774 33229 ft 401 kts 289°
2026-05-08 00:01 27.90982 120.14877 33225 ft 400 kts 289°
2026-05-08 00:02 27.92911 120.09026 33232 ft 400 kts 289°
2026-05-08 00:02 27.94846 120.03138 33235 ft 399 kts 289°
2026-05-08 00:03 27.96775 119.97260 33233 ft 398 kts 289°
2026-05-08 00:03 27.98695 119.91391 33240 ft 398 kts 289°
2026-05-08 00:04 28.00611 119.85518 33244 ft 398 kts 289°
2026-05-08 00:04 28.02533 119.79652 33253 ft 398 kts 289°
2026-05-08 00:05 28.04451 119.73785 33257 ft 397 kts 289°
2026-05-08 00:05 28.06355 119.67924 33123 ft 397 kts 289°
2026-05-08 00:06 28.07425 119.65042 32874 ft 398 kts 296°
2026-05-08 00:06 28.08967 119.62427 32624 ft 402 kts 307°
2026-05-08 00:06 28.10968 119.60185 32385 ft 409 kts 316°
2026-05-08 00:06 28.13379 119.58418 32142 ft 418 kts 327°
2026-05-08 00:07 28.16087 119.57245 31907 ft 428 kts 338°
2026-05-08 00:07 28.19071 119.56723 31671 ft 441 kts 350°
2026-05-08 00:07 28.22174 119.56816 31437 ft 448 kts 355°
2026-05-08 00:07 28.25290 119.56992 31201 ft 449 kts 355°
2026-05-08 00:08 28.28413 119.57174 30971 ft 450 kts 355°
2026-05-08 00:08 28.31544 119.57354 30743 ft 451 kts 355°
2026-05-08 00:08 28.34679 119.57529 30521 ft 451 kts 355°
2026-05-08 00:08 28.36754 119.57643 30373 ft 451 kts 355°
2026-05-08 00:09 28.39890 119.57813 30139 ft 451 kts 355°
2026-05-08 00:09 28.43030 119.57983 29869 ft 452 kts 355°
2026-05-08 00:09 28.46161 119.58157 29236 ft 448 kts 355°
2026-05-08 00:09 28.49263 119.58340 28517 ft 445 kts 356°
2026-05-08 00:10 28.52343 119.58533 27804 ft 442 kts 356°
2026-05-08 00:10 28.55403 119.58729 27129 ft 439 kts 356°
2026-05-08 00:10 28.58445 119.58924 26478 ft 437 kts 356°
2026-05-08 00:10 28.61469 119.59114 25817 ft 434 kts 356°
2026-05-08 00:11 28.64475 119.59301 25173 ft 432 kts 357°
2026-05-08 00:11 28.67468 119.59486 24541 ft 430 kts 357°
2026-05-08 00:11 28.70450 119.59669 23923 ft 429 kts 357°
2026-05-08 00:11 28.73427 119.59849 23240 ft 427 kts 357°
2026-05-08 00:12 28.76381 119.60031 22613 ft 424 kts 357°
2026-05-08 00:12 28.79311 119.60213 22025 ft 419 kts 357°
2026-05-08 00:12 28.82211 119.60392 21466 ft 416 kts 358°
2026-05-08 00:12 28.85057 119.60567 21174 ft 415 kts 358°
2026-05-08 00:13 28.87934 119.60746 21097 ft 414 kts 357°
2026-05-08 00:13 28.90814 119.60924 21119 ft 415 kts 358°
2026-05-08 00:13 28.93697 119.61103 21122 ft 415 kts 358°
2026-05-08 00:13 28.96583 119.61285 21125 ft 415 kts 357°
2026-05-08 00:14 28.99466 119.61466 21123 ft 415 kts 357°
2026-05-08 00:14 29.02349 119.61643 21091 ft 414 kts 358°
2026-05-08 00:14 29.05208 119.61821 20588 ft 410 kts 358°
2026-05-08 00:14 29.08047 119.62003 20061 ft 407 kts 358°
2026-05-08 00:15 29.10866 119.62181 19714 ft 405 kts 358°
2026-05-08 00:15 29.13681 119.62354 19596 ft 405 kts 358°
2026-05-08 00:15 29.16498 119.62524 19628 ft 406 kts 358°
2026-05-08 00:15 29.19319 119.62693 19624 ft 406 kts 358°
2026-05-08 00:16 29.22140 119.62861 19625 ft 406 kts 358°
2026-05-08 00:16 29.24952 119.63030 19555 ft 404 kts 358°
2026-05-08 00:16 29.27740 119.63202 19080 ft 400 kts 358°
2026-05-08 00:16 29.30516 119.63373 18580 ft 398 kts 358°
2026-05-08 00:17 29.33238 119.63539 18051 ft 396 kts 358°
2026-05-08 00:17 29.35980 119.63708 17566 ft 394 kts 358°
2026-05-08 00:17 29.38714 119.63875 17099 ft 392 kts 358°
2026-05-08 00:17 29.41428 119.64042 16620 ft 390 kts 358°
2026-05-08 00:18 29.44126 119.64209 16156 ft 387 kts 358°
2026-05-08 00:18 29.46810 119.64373 15731 ft 385 kts 358°
2026-05-08 00:18 29.49474 119.64533 15250 ft 383 kts 359°
2026-05-08 00:18 29.52137 119.64693 15033 ft 384 kts 359°
2026-05-08 00:19 29.54802 119.64854 15021 ft 384 kts 359°
2026-05-08 00:19 29.57472 119.64984 15026 ft 384 kts 358°
2026-05-08 00:19 29.60140 119.65065 14974 ft 382 kts 357°
2026-05-08 00:19 29.62787 119.65117 14518 ft 379 kts 357°
2026-05-08 00:20 29.65427 119.65204 14134 ft 380 kts 359°
2026-05-08 00:20 29.68066 119.65358 14008 ft 380 kts
2026-05-08 00:20 29.70713 119.65550 14031 ft 382 kts
2026-05-08 00:20 29.73372 119.65757 14031 ft 383 kts
2026-05-08 00:21 29.76028 119.65965 14031 ft 383 kts
2026-05-08 00:21 29.78689 119.66156 14028 ft 383 kts 360°
2026-05-08 00:21 29.81354 119.66312 14029 ft 384 kts 359°
2026-05-08 00:21 29.84017 119.66548 14024 ft 386 kts
2026-05-08 00:22 29.86633 119.67303 14024 ft 388 kts 17°
2026-05-08 00:22 29.89082 119.68570 13680 ft 386 kts 25°
2026-05-08 00:22 29.91453 119.69988 13214 ft 382 kts 26°
2026-05-08 00:22 29.93752 119.71392 12779 ft 377 kts 26°
2026-05-08 00:23 29.96083 119.72827 12336 ft 371 kts 26°
2026-05-08 00:23 29.98307 119.74195 12065 ft 361 kts 26°
2026-05-08 00:23 30.00482 119.75527 11932 ft 347 kts 26°
2026-05-08 00:23 30.02479 119.77006 11817 ft 337 kts 38°
2026-05-08 00:24 30.04078 119.78924 11678 ft 328 kts 52°
2026-05-08 00:24 30.05234 119.81143 11566 ft 318 kts 62°
2026-05-08 00:24 30.06238 119.83375 11397 ft 310 kts 61°
2026-05-08 00:24 30.07224 119.85565 11125 ft 306 kts 61°
2026-05-08 00:25 30.08200 119.87735 10827 ft 303 kts 60°
2026-05-08 00:25 30.09165 119.89881 10535 ft 300 kts 60°
2026-05-08 00:25 30.10123 119.92008 10230 ft 297 kts 60°
2026-05-08 00:25 30.11072 119.94114 9914 ft 294 kts 60°
2026-05-08 00:26 30.12013 119.96202 9580 ft 292 kts 60°
2026-05-08 00:26 30.12945 119.98274 9289 ft 288 kts 60°
2026-05-08 00:26 30.13845 120.00293 9158 ft 277 kts 60°
2026-05-08 00:26 30.14705 120.02234 9038 ft 267 kts 60°
2026-05-08 00:27 30.15536 120.04112 8905 ft 257 kts 60°
2026-05-08 00:27 30.16307 120.05934 8775 ft 249 kts 68°
2026-05-08 00:27 30.16476 120.07901 8560 ft 247 kts 90°
2026-05-08 00:27 30.16395 120.09875 8265 ft 246 kts 90°
2026-05-08 00:28 30.16315 120.11842 7982 ft 244 kts 90°
2026-05-08 00:28 30.16176 120.13785 7708 ft 244 kts 102°
2026-05-08 00:28 30.15455 120.15541 7506 ft 244 kts 128°
2026-05-08 00:28 30.14145 120.16730 7383 ft 239 kts 156°
2026-05-08 00:29 30.12556 120.17101 7261 ft 232 kts 184°
2026-05-08 00:29 30.11032 120.16651 7138 ft 223 kts 210°
2026-05-08 00:29 30.09853 120.15553 7004 ft 215 kts 235°
2026-05-08 00:29 30.09187 120.14072 6786 ft 210 kts 258°
2026-05-08 00:30 30.09079 120.12422 6556 ft 206 kts 281°
2026-05-08 00:30 30.09522 120.10879 6314 ft 202 kts 304°
2026-05-08 00:30 30.10423 120.09670 6062 ft 198 kts 326°
2026-05-08 00:30 30.11559 120.08779 5827 ft 198 kts 321°
2026-05-08 00:31 30.12170 120.07363 5606 ft 207 kts 275°
2026-05-08 00:31 30.11712 120.05791 5342 ft 215 kts 228°
2026-05-08 00:31 30.10413 120.04997 5076 ft 215 kts 180°
2026-05-08 00:31 30.08999 120.05363 4798 ft 208 kts 145°
2026-05-08 00:32 30.07945 120.06489 4225 ft 210 kts 116°
2026-05-08 00:32 30.07534 120.08108 3510 ft 216 kts 86°
2026-05-08 00:32 30.07939 120.09761 2988 ft 213 kts 61°
2026-05-08 00:32 30.08598 120.11219 2898 ft 196 kts 62°
2026-05-08 00:33 30.09200 120.12574 2908 ft 186 kts 62°
2026-05-08 00:33 30.09784 120.13885 2907 ft 182 kts 62°
2026-05-08 00:33 30.10362 120.15177 2914 ft 181 kts 62°
2026-05-08 00:33 30.10937 120.16463 2915 ft 180 kts 62°
2026-05-08 00:34 30.11512 120.17752 2909 ft 181 kts 61°
2026-05-08 00:34 30.12087 120.19039 2912 ft 180 kts 61°
2026-05-08 00:34 30.12644 120.20285 2922 ft 163 kts 62°
2026-05-08 00:34 30.13132 120.21380 2905 ft 146 kts 62°
2026-05-08 00:35 30.13584 120.22393 2897 ft 139 kts 61°
2026-05-08 00:35 30.14020 120.23370 2944 ft 135 kts 61°
2026-05-08 00:35 30.14447 120.24325 2922 ft 133 kts 61°
2026-05-08 00:35 30.14871 120.25277 2915 ft 133 kts 61°
2026-05-08 00:36 30.15294 120.26226 2888 ft 133 kts 62°
2026-05-08 00:36 30.15712 120.27164 2788 ft 133 kts 61°
2026-05-08 00:36 30.16134 120.28109 2627 ft 132 kts 61°
2026-05-08 00:36 30.16555 120.29055 2463 ft 132 kts 61°
2026-05-08 00:37 30.16975 120.29997 2299 ft 132 kts 61°
2026-05-08 00:37 30.17393 120.30936 2121 ft 131 kts 60°
2026-05-08 00:37 30.17812 120.31877 1949 ft 131 kts 60°
2026-05-08 00:38 30.18647 120.33752 1582 ft 131 kts 60°
2026-05-08 00:38 30.19066 120.34695 1411 ft 132 kts 60°
2026-05-08 00:38 30.19486 120.35639 1229 ft 132 kts 61°
2026-05-08 00:38 30.19908 120.36587 1054 ft 133 kts 62°
2026-05-08 00:39 30.20328 120.37533 871 ft 132 kts 61°
2026-05-08 00:39 30.20748 120.38478 688 ft 132 kts 62°
2026-05-08 00:39 30.21168 120.39424 521 ft 133 kts 62°
2026-05-08 00:39 30.21591 120.40375 343 ft 133 kts 63°
2026-05-08 00:40 30.22014 120.41328 164 ft 133 kts 62°
2026-05-08 00:40 30.22434 120.42275 35 ft 125 kts 63°
2026-05-08 00:40 30.22755 120.43002 30 ft 76 kts 64°
2026-05-08 00:40 30.22918 120.43377 34 ft 34 kts 63°
2026-05-08 00:41 30.23003 120.43563 35 ft 20 kts 62°
2026-05-08 00:41 30.23072 120.43654 34 ft 10 kts 37°
2026-05-08 00:41 30.23131 120.43707 33 ft 12 kts 37°
2026-05-08 00:41 30.23206 120.43769 33 ft 15 kts 35°
2026-05-08 00:42 30.23309 120.43807 32 ft 17 kts 345°
2026-05-08 00:42 30.23404 120.43751 31 ft 8 kts 336°
2026-05-08 00:42 30.23447 120.43729 31 ft 5 kts 333°
2026-05-08 00:42 30.23477 120.43710 32 ft 4 kts 332°
2026-05-08 00:43 30.23501 120.43695 31 ft 3 kts 332°
2026-05-08 00:43 30.23523 120.43682 32 ft 6 kts 332°
2026-05-08 00:43 30.23556 120.43662 32 ft 5 kts 333°
2026-05-08 00:43 30.23572 120.43642 31 ft 2 kts 274°
2026-05-08 00:44 30.23570 120.43626 32 ft 2 kts 252°
2026-05-08 00:44 30.23565 120.43616 32 ft 3 kts 241°
2026-05-08 00:44 30.23554 120.43593 31 ft 3 kts 242°
2026-05-08 00:44 30.23546 120.43576 32 ft 2 kts 242°
2026-05-08 00:45 30.23540 120.43562 32 ft 2 kts 241°
2026-05-08 00:45 30.23535 120.43553 32 ft 1 kts 241°
2026-05-08 00:45 30.23535 120.43551 32 ft 0 kts 241°